sat.trackr.live / text

‹ back to catalog

ONEWEB-0699

NORAD 61605 · 2024-188M

PAYLOAD ACTIVE UNKNOWN

§ Identity

Operator
Country
UK
Launch date
2024-10-20
Launch site
AFWTR
Launch vehicle
Mass (kg)
RCS (m²)

Purposes: comms

External: N2YO · Heavens-Above · Gunter

§ Orbital elements

Epoch: 2026-09-19T16:04:02.170848Z

Period
109.89 min
Inclination
87.8910°
Eccentricity
0.0001155
Mean motion
13.10375530 rev/d
Perigee alt
1,220.8 km
Apogee alt
1,222.6 km
Semi-major
7,599.8 km
B*
-9.0318e-4
RAAN
17.4575°
Arg perigee
87.3245°
Mean anomaly
272.8014°
Rev number
9,568

§ Raw data

ONEWEB-06991 61605U 24188M   26262.66946957 -.00000303  00000+0 -90318-3 0  99922 61605  87.8910  17.4575 0001155  87.3245 272.8014 13.10375530 95683

JSON: /api/v1/satellites/61605 · /tle

For live sub-satellite position, see the globe view (requires WebGL).

§ Visibility from observer

Set your observer location to see the next 7 days of passes ≥ 10°. The values pass through the URL so the page stays shareable.

No JS? Fill the form by hand. The geolocation button needs JavaScript.